Regional Weather Roundup
Issued by NWS Green Bay, WI

Home | Current Version | Previous Version | Graphics & Text | Print | Product List | Glossary Off
Versions: 1 2 3 4 5 6 7 8 9 10 11 12 13 14 15 16 17 18 19 20 21 22 23 24 25 26 27 28 29 30 31 32 33 34 35 36 37 38 39 40 41 42 43 44 45 46 47 48 49 50

000
ASUS43 KGRB 181359
RWRGRB

NORTH-CENTRAL AND NORTHEAST WISCONSIN REGIONAL WEATHER ROUNDUP
NATIONAL WEATHER SERVICE GREEN BAY WI
900 AM CDT FRI APR 18 2014

WIZ005-009-010>012-018-019-181500-
NORTH CENTRAL WISCONSIN

CITY           SKY/WX    TMP DP  RH WIND       PRES   REMARKS
IRONWOOD       CLOUDY    28  23  80 W5        30.34R
MANITOWISH WTR NOT AVBL
ARBOR VITAE    NOT AVBL
EAGLE RIVER    NOT AVBL
LAND O LAKES   NOT AVBL
RHINELANDER    MOSUNNY   31  23  72 NW7       30.35R
PHILLIPS       NOT AVBL
ANTIGO         NOT AVBL
TOMAHAWK       NOT AVBL
MERRILL        NOT AVBL
$$

WIZ013-073-181500-
NORTHEAST WISCONSIN

CITY           SKY/WX    TMP DP  RH WIND       PRES   REMARKS
IRON MOUNTAIN  CLOUDY    33  23  66 N9        30.33R
MARINETTE      CLOUDY    36  25  64 NW7       30.36S
$$

WIZ017-030-035>037-045-181500-
CENTRAL WISCONSIN

CITY           SKY/WX    TMP DP  RH WIND       PRES   REMARKS
MEDFORD        NOT AVBL
WAUSAU         PTSUNNY   34  24  67 N5        30.35R
MOSINEE        SUNNY     34  28  80 N3        30.37R
MARSHFIELD     CLOUDY    37  27  67 NW8       30.37R
WISC RAPIDS    SUNNY     38  25  59 NW6       30.39R
STEVENS POINT  NOT AVBL
WAUPACA        NOT AVBL
SHAWANO        NOT AVBL
CLINTONVILLE   NOT AVBL
$$

WIZ038-039-048-051-181500-
FOX VALLEY

CITY           SKY/WX    TMP DP  RH WIND       PRES   REMARKS
NWS GREEN BAY  NOT AVBL
APPLETON       PTSUNNY   37  27  65 NW7       30.36S
OSHKOSH        CLOUDY    37  26  64 N7        30.36R
FOND DU LAC    CLOUDY    37  28  70 N9        30.36R
$$

WIZ022-050-052-181500-
EAST CENTRAL WISCONSIN

CITY           SKY/WX    TMP DP  RH WIND       PRES   REMARKS
STURGEON BAY   CLOUDY    36  23  60 N8        30.37R
MANITOWOC      NOT AVBL
SHEBOYGAN      CLOUDY    38  29  70 N8        30.35S
$$

LMZ563-521-522-541>543-181500-
LAKESHORE

STATION/POSITION TIME  TEMP    WIND        PRES    VSBY  WAVE
                       AIR SEA DIR/SP/G                  HT/PER
                 (UTC) (F)     (DEG/KT/KT) (MB)    (MI)  (FT/S)
SHEBOYGAN LKSHOR 1300   38     360/ 11/ 12 1028.5R
KEWAUNEE LKSHORE 1300   36     340/  7/ 11 1028.5R
NORTHPORT PIER   1300   34     310/  5/  7 1027.8R
SISTER BAY LKSHO 1300   37        CALM       N/A
MENOMINEE LKSHOR 1300   35     330/  6/  8 1028.6R
$$



USA.gov is the U.S. government's official web portal to all federal, state and local government web resources and services.